TimeCDT,TemperatureF,Dew PointF,Humidity,Sea Level PressureIn,VisibilityMPH,Wind Direction,Wind SpeedMPH,Gust SpeedMPH,PrecipitationIn,Events,Conditions,WindDirDegrees,DateUTC
12:53 AM,28.9,23.0,78,29.91,10.0,NNW,17.3,-,N/A,,Overcast,330,2013-03-11 05:53:00
1:53 AM,28.0,21.0,75,29.90,10.0,NNW,21.9,29.9,N/A,,Overcast,330,2013-03-11 06:53:00
2:53 AM,27.0,21.0,78,29.91,10.0,NW,13.8,21.9,N/A,,Overcast,310,2013-03-11 07:53:00
3:53 AM,26.1,21.0,81,29.89,10.0,NW,17.3,-,N/A,,Overcast,310,2013-03-11 08:53:00
4:53 AM,26.1,19.9,78,29.88,10.0,NW,18.4,25.3,N/A,,Overcast,310,2013-03-11 09:53:00
5:53 AM,26.1,19.9,78,29.89,10.0,NW,16.1,-,N/A,,Overcast,320,2013-03-11 10:53:00
6:53 AM,26.1,19.9,78,29.92,10.0,NW,15.0,23.0,N/A,,Overcast,310,2013-03-11 11:53:00
7:53 AM,25.0,19.0,78,29.94,5.0,WNW,13.8,-,0.00,Snow,Light Snow,300,2013-03-11 12:53:00
8:20 AM,24.8,19.4,80,29.92,3.0,WNW,13.8,-,0.00,Snow,Light Snow,300,2013-03-11 13:20:00
8:53 AM,25.0,19.0,78,29.95,10.0,WNW,12.7,-,0.00,,Overcast,300,2013-03-11 13:53:00
9:53 AM,25.0,19.0,78,29.96,10.0,WNW,12.7,-,N/A,,Overcast,300,2013-03-11 14:53:00
10:53 AM,26.1,19.0,75,29.96,10.0,NW,17.3,-,N/A,,Overcast,310,2013-03-11 15:53:00
11:53 AM,27.0,19.0,72,29.96,10.0,WNW,12.7,-,N/A,,Overcast,290,2013-03-11 16:53:00
12:53 PM,28.9,19.9,69,29.97,10.0,WNW,12.7,-,N/A,,Overcast,300,2013-03-11 17:53:00
1:53 PM,30.0,21.0,69,29.97,10.0,West,13.8,-,N/A,,Overcast,270,2013-03-11 18:53:00
2:53 PM,30.0,19.0,64,29.96,10.0,WNW,13.8,-,N/A,,Overcast,290,2013-03-11 19:53:00
3:39 PM,32.0,19.4,60,29.92,10.0,WNW,12.7,16.1,N/A,,Scattered Clouds,300,2013-03-11 20:39:00
3:53 PM,32.0,19.9,61,29.94,10.0,West,12.7,-,N/A,,Scattered Clouds,280,2013-03-11 20:53:00
4:53 PM,35.1,21.0,57,29.94,10.0,WNW,12.7,-,N/A,,Clear,290,2013-03-11 21:53:00
6:53 PM,33.1,19.9,59,29.97,10.0,West,8.1,-,N/A,,Clear,280,2013-03-11 23:53:00
7:53 PM,32.0,19.9,61,30.00,10.0,Calm,Calm,-,N/A,,Clear,0,2013-03-12 00:53:00
8:53 PM,28.9,21.0,72,30.00,10.0,Calm,Calm,-,N/A,,Partly Cloudy,0,2013-03-12 01:53:00
9:53 PM,28.9,23.0,78,30.02,10.0,Calm,Calm,-,N/A,,Clear,0,2013-03-12 02:53:00
10:53 PM,27.0,23.0,85,30.02,10.0,Calm,Calm,-,N/A,,Clear,0,2013-03-12 03:53:00
11:53 PM,28.0,23.0,81,30.06,10.0,West,3.5,-,N/A,,Clear,260,2013-03-12 04:53:00